QPF
0.00 0.00 0.00 0.00 0.00 0.00 0.00 0.00 0.00 0.00 0.00 0.00 0.00 0.00 0.00 0.00 0.01 0.01 0.02 0.03 0.04 0.07 0.11 0.22 0.22 0.33 0.40 0.49 0.49 0.38 0.32 0.29 0.25 0.20 0.16 0.13 0.09 0.07 0.05 0.04 0.02 0.01 0.00 0.00
0.00 0.00 0.00 0.00 0.00 0.00 0.00 0.00 0.00 0.00 0.00 0.00 0.00 0.00 0.00 0.00 0.00 0.00 0.00 0.01 0.02 0.03 0.09 0.18 0.21 0.28 0.35 0.38 0.40 0.34 0.29 0.25 0.20 0.17 0.15 0.13 0.11 0.08 0.06 0.04 0.02 0.00 0.00 0.00
0.00 0.00 0.00 0.00 0.00 0.00 0.00 0.00 0.00 0.00 0.00 0.00 0.00 0.00 0.00 0.00 0.00 0.01 0.00 0.01 0.01 0.02 0.05 0.08 0.13 0.20 0.24 0.24 0.26 0.28 0.29 0.26 0.19 0.17 0.16 0.12 0.09 0.07 0.05 0.02 0.01 0.00 0.00 0.00
0.00 0.00 0.00 0.00 0.00 0.00 0.00 0.00 0.00 0.00 0.00 0.00 0.00 0.00 0.00 0.00 0.00 0.01 0.01 0.01 0.01 0.01 0.02 0.05 0.12 0.15 0.21 0.20 0.17 0.21 0.27 0.26 0.22 0.19 0.13 0.08 0.05 0.04 0.03 0.01 0.01 0.00 0.00 0.00
0.00 0.00 0.00 0.00 0.00 0.00 0.00 0.00 0.00 0.00 0.00 0.00 0.00 0.00 0.00 0.00 0.00 0.00 0.00 0.00 0.01 0.01 0.01 0.02 0.07 0.11 0.13 0.16 0.15 0.16 0.19 0.20 0.18 0.17 0.14 0.11 0.07 0.05 0.03 0.01 0.01 0.00 0.00 0.00
0.00 0.00 0.00 0.00 0.00 0.00 0.00 0.00 0.00 0.00 0.00 0.00 0.00 0.00 0.00 0.00 0.00 0.00 0.00 0.00 0.01 0.01 0.01 0.03 0.04 0.06 0.08 0.12 0.14 0.15 0.16 0.15 0.14 0.16 0.15 0.11 0.07 0.05 0.03 0.01 0.00 0.00 0.00 0.00
0.00 0.00 0.00 0.00 0.00 0.00 0.00 0.00 0.00 0.00 0.00 0.00 0.00 0.00 0.00 0.00 0.00 0.00 0.00 0.00 0.00 0.01 0.02 0.04 0.05 0.06 0.05 0.09 0.11 0.11 0.13 0.13 0.14 0.14 0.11 0.08 0.06 0.05 0.03 0.01 0.00 0.00 0.00 0.00
0.00 0.00 0.00 0.00 0.00 0.00 0.00 0.00 0.01 0.01 0.00 0.00 0.00 0.00 0.00 0.00 0.00 0.00 0.00 0.00 0.01 0.00 0.01 0.02 0.04 0.05 0.04 0.06 0.06 0.07 0.09 0.10 0.09 0.08 0.07 0.06 0.05 0.04 0.02 0.01 0.00 0.00 0.00 0.00
0.00 0.00 0.00 0.00 0.00 0.00 0.00 0.00 0.01 0.01 0.01 0.00 0.00 0.00 0.00 0.00 0.00 0.00 0.00 0.01 0.01 0.01 0.00 0.02 0.03 0.03 0.04 0.05 0.05 0.06 0.07 0.08 0.07 0.06 0.06 0.06 0.04 0.03 0.01 0.01 0.01 0.00 0.00 0.00
0.00 0.00 0.00 0.00 0.00 0.00 0.00 0.00 0.00 0.01 0.01 0.01 0.00 0.00 0.00 0.00 0.00 0.00 0.00 0.00 0.00 0.01 0.00 0.01 0.02 0.03 0.03 0.03 0.04 0.06 0.06 0.06 0.08 0.07 0.06 0.04 0.03 0.03 0.02 0.01 0.01 0.01 0.00 0.00
0.00 0.00 0.00 0.00 0.00 0.00 0.00 0.00 0.00 0.01 0.01 0.01 0.01 0.00 0.00 0.00 0.00 0.00 0.00 0.00 0.00 0.00 0.01 0.00 0.01 0.02 0.01 0.02 0.02 0.04 0.05 0.06 0.07 0.06 0.05 0.04 0.03 0.03 0.02 0.02 0.01 0.01 0.00 0.00
0.00 0.00 0.00 0.00 0.00 0.00 0.00 0.00 0.00 0.00 0.01 0.01 0.01 0.00 0.00 0.00 0.00 0.00 0.00 0.00 0.00 0.00 0.01 0.01 0.01 0.01 0.01 0.01 0.02 0.04 0.04 0.04 0.04 0.05 0.05 0.03 0.03 0.04 0.03 0.02 0.02 0.02 0.01 0.01
0.00 0.00 0.00 0.00 0.00 0.00 0.00 0.00 0.01 0.01 0.01 0.01 0.01 0.00 0.00 0.00 0.00 0.00 0.00 0.00 0.00 0.01 0.01 0.01 0.01 0.01 0.01 0.02 0.03 0.04 0.06 0.06 0.03 0.04 0.04 0.05 0.05 0.04 0.04 0.03 0.02 0.02 0.02 0.01
0.00 0.01 0.01 0.00 0.00 0.01 0.01 0.01 0.01 0.01 0.01 0.01 0.01 0.00 0.01 0.01 0.00 0.00 0.00 0.00 0.00 0.00 0.01 0.02 0.02 0.01 0.01 0.01 0.03 0.04 0.05 0.05 0.04 0.05 0.05 0.05 0.05 0.05 0.04 0.04 0.04 0.04 0.03 0.02
0.00 0.01 0.01 0.01 0.00 0.01 0.01 0.01 0.01 0.01 0.01 0.00 0.00 0.01 0.01 0.01 0.00 0.00 0.00 0.00 0.00 0.01 0.01 0.01 0.02 0.02 0.02 0.03 0.04 0.05 0.07 0.07 0.06 0.07 0.06 0.05 0.05 0.05 0.04 0.04 0.06 0.08 0.08 0.08
0.00 0.00 0.00 0.01 0.01 0.01 0.01 0.01 0.01 0.01 0.01 0.01 0.01 0.01 0.01 0.00 0.00 0.00 0.00 0.00 0.02 0.03 0.03 0.02 0.01 0.02 0.03 0.04 0.06 0.05 0.07 0.09 0.11 0.11 0.10 0.09 0.09 0.06 0.05 0.06 0.08 0.09 0.12 0.15
0.00 0.00 0.00 0.00 0.01 0.01 0.01 0.01 0.01 0.01 0.01 0.01 0.01 0.01 0.01 0.01 0.00 0.01 0.01 0.02 0.03 0.04 0.04 0.04 0.03 0.04 0.05 0.07 0.06 0.06 0.07 0.10 0.14 0.15 0.15 0.15 0.12 0.09 0.10 0.13 0.14 0.14 0.14 0.15
0.00 0.00 0.00 0.00 0.01 0.01 0.01 0.02 0.02 0.01 0.01 0.01 0.01 0.01 0.01 0.01 0.01 0.02 0.02 0.03 0.03 0.04 0.05 0.06 0.06 0.06 0.06 0.06 0.06 0.06 0.09 0.11 0.12 0.13 0.15 0.15 0.13 0.11 0.12 0.13 0.11 0.08 0.06 0.07
0.00 0.00 0.00 0.00 0.01 0.01 0.01 0.02 0.02 0.02 0.02 0.03 0.03 0.03 0.03 0.02 0.03 0.04 0.05 0.06 0.06 0.06 0.06 0.06 0.07 0.08 0.08 0.08 0.09 0.09 0.10 0.11 0.11 0.11 0.12 0.13 0.11 0.10 0.10 0.09 0.08 0.08 0.08 0.07
0.01 0.01 0.01 0.01 0.01 0.02 0.02 0.02 0.02 0.03 0.04 0.03 0.04 0.05 0.05 0.05 0.06 0.08 0.09 0.09 0.07 0.06 0.06 0.06 0.06 0.06 0.07 0.10 0.11 0.11 0.11 0.11 0.11 0.11 0.11 0.11 0.09 0.08 0.08 0.07 0.06 0.08 0.09 0.09
0.01 0.02 0.02 0.01 0.02 0.03 0.02 0.02 0.03 0.05 0.04 0.03 0.04 0.05 0.06 0.07 0.07 0.09 0.10 0.11 0.09 0.07 0.07 0.06 0.05 0.06 0.07 0.08 0.08 0.08 0.08 0.07 0.06 0.05 0.04 0.03 0.03 0.03 0.03 0.03 0.04 0.04 0.04 0.04
0.02 0.02 0.02 0.02 0.03 0.03 0.03 0.03 0.05 0.05 0.05 0.05 0.06 0.08 0.10 0.12 0.13 0.14 0.15 0.14 0.10 0.07 0.06 0.06 0.04 0.04 0.05 0.05 0.05 0.05 0.04 0.02 0.02 0.01 0.01 0.01 0.01 0.01 0.01 0.01 0.02 0.02 0.02 0.03
0.01 0.02 0.03 0.04 0.04 0.03 0.03 0.03 0.03 0.05 0.06 0.08 0.11 0.12 0.15 0.18 0.16 0.17 0.16 0.15 0.13 0.09 0.07 0.05 0.03 0.03 0.02 0.03 0.02 0.03 0.03 0.02 0.02 0.01 0.01 0.01 0.01 0.01 0.01 0.01 0.01 0.01 0.01 0.01
0.03 0.02 0.03 0.04 0.06 0.06 0.05 0.05 0.04 0.05 0.07 0.11 0.14 0.15 0.16 0.19 0.18 0.15 0.15 0.12 0.10 0.08 0.06 0.03 0.02 0.01 0.01 0.01 0.01 0.01 0.01 0.01 0.01 0.01 0.01 0.01 0.01 0.00 0.00 0.00 0.00 0.00 0.00 0.00
0.07 0.08 0.08 0.08 0.09 0.07 0.06 0.07 0.09 0.11 0.12 0.13 0.15 0.14 0.12 0.14 0.14 0.13 0.12 0.08 0.05 0.04 0.02 0.02 0.01 0.01 0.00 0.00 0.00 0.00 0.00 0.00 0.00 0.00 0.00 0.00 0.00 0.00 0.00 0.00 0.00 0.00 0.00 0.00
0.10 0.11 0.10 0.12 0.14 0.14 0.12 0.14 0.17 0.18 0.18 0.15 0.12 0.11 0.10 0.09 0.09 0.08 0.07 0.06 0.04 0.03 0.02 0.02 0.01 0.01 0.00 0.00 0.00 0.00 0.00 0.00 0.00 0.00 0.00 0.00 0.00 0.00 0.00 0.00 0.00 0.00 0.00 0.00
MSLP
1011.38 1012.11 1012.61 1012.88 1012.95 1012.87 1012.68 1012.43 1012.15 1011.85 1011.52 1011.15 1010.73 1010.27 1009.80 1009.35 1008.97 1008.70 1008.56 1008.56 1008.69 1008.91 1009.19 1009.50 1009.81 1010.12 1010.43 1010.77 1011.18 1011.66 1012.24 1012.89 1013.59 1014.28 1014.92 1015.46 1015.88 1016.16 1016.34 1016.45 1016.53 1016.62 1016.77 1016.99
1011.77 1012.36 1012.71 1012.85 1012.85 1012.75 1012.63 1012.51 1012.41 1012.29 1012.14 1011.89 1011.55 1011.10 1010.58 1010.04 1009.54 1009.15 1008.91 1008.82 1008.88 1009.05 1009.29 1009.55 1009.80 1010.05 1010.31 1010.60 1010.98 1011.46 1012.07 1012.79 1013.57 1014.35 1015.08 1015.68 1016.15 1016.45 1016.61 1016.69 1016.74 1016.81 1016.95 1017.18
1011.81 1012.23 1012.43 1012.46 1012.40 1012.34 1012.33 1012.39 1012.51 1012.61 1012.65 1012.55 1012.29 1011.85 1011.27 1010.64 1010.02 1009.51 1009.15 1008.98 1008.98 1009.11 1009.32 1009.56 1009.78 1009.99 1010.21 1010.46 1010.81 1011.29 1011.92 1012.68 1013.52 1014.37 1015.16 1015.83 1016.33 1016.65 1016.82 1016.88 1016.91 1016.98 1017.11 1017.35
1011.52 1011.77 1011.83 1011.77 1011.72 1011.74 1011.89 1012.17 1012.53 1012.88 1013.12 1013.17 1012.97 1012.53 1011.90 1011.15 1010.41 1009.77 1009.30 1009.05 1009.00 1009.11 1009.31 1009.55 1009.77 1009.97 1010.17 1010.40 1010.73 1011.19 1011.81 1012.58 1013.45 1014.34 1015.17 1015.88 1016.41 1016.75 1016.93 1017.01 1017.04 1017.11 1017.25 1017.50
1011.02 1011.11 1011.05 1010.96 1010.95 1011.10 1011.44 1011.96 1012.58 1013.16 1013.60 1013.77 1013.63 1013.18 1012.46 1011.59 1010.72 1009.95 1009.38 1009.06 1008.97 1009.07 1009.30 1009.56 1009.81 1010.03 1010.22 1010.44 1010.74 1011.17 1011.77 1012.52 1013.38 1014.27 1015.12 1015.84 1016.40 1016.77 1016.97 1017.07 1017.12 1017.21 1017.37 1017.64
1010.44 1010.39 1010.26 1010.18 1010.24 1010.55 1011.10 1011.86 1012.72 1013.51 1014.11 1014.38 1014.26 1013.76 1012.95 1011.96 1010.95 1010.06 1009.40 1009.03 1008.93 1009.05 1009.32 1009.64 1009.94 1010.19 1010.40 1010.61 1010.89 1011.27 1011.82 1012.51 1013.32 1014.18 1015.01 1015.74 1016.31 1016.70 1016.94 1017.07 1017.16 1017.28 1017.47 1017.77
1009.92 1009.77 1009.61 1009.55 1009.72 1010.19 1010.94 1011.90 1012.95 1013.91 1014.60 1014.92 1014.79 1014.22 1013.32 1012.21 1011.09 1010.11 1009.39 1008.99 1008.90 1009.07 1009.40 1009.80 1010.17 1010.47 1010.71 1010.92 1011.16 1011.49 1011.96 1012.57 1013.31 1014.11 1014.89 1015.60 1016.17 1016.58 1016.85 1017.02 1017.15 1017.31 1017.54 1017.86
1009.54 1009.33 1009.16 1009.16 1009.43 1010.03 1010.93 1012.04 1013.21 1014.25 1014.99 1015.30 1015.12 1014.49 1013.49 1012.30 1011.10 1010.07 1009.33 1008.94 1008.90 1009.14 1009.55 1010.03 1010.48 1010.85 1011.12 1011.33 1011.53 1011.80 1012.18 1012.70 1013.34 1014.05 1014.77 1015.43 1015.99 1016.41 1016.71 1016.92 1017.09 1017.28 1017.54 1017.87
1009.31 1009.07 1008.92 1008.98 1009.34 1010.03 1011.01 1012.19 1013.39 1014.43 1015.14 1015.39 1015.15 1014.44 1013.39 1012.15 1010.93 1009.90 1009.19 1008.86 1008.89 1009.22 1009.73 1010.31 1010.83 1011.26 1011.56 1011.77 1011.95 1012.15 1012.45 1012.87 1013.40 1014.02 1014.66 1015.27 1015.80 1016.22 1016.52 1016.75 1016.95 1017.16 1017.43 1017.77
1009.18 1008.96 1008.85 1008.96 1009.36 1010.08 1011.07 1012.22 1013.36 1014.32 1014.93 1015.10 1014.78 1014.02 1012.94 1011.72 1010.54 1009.58 1008.96 1008.72 1008.85 1009.28 1009.89 1010.54 1011.14 1011.62 1011.95 1012.17 1012.32 1012.48 1012.70 1013.03 1013.47 1014.00 1014.56 1015.11 1015.59 1015.99 1016.29 1016.52 1016.72 1016.94 1017.19 1017.52
1009.11 1008.92 1008.86 1009.00 1009.41 1010.10 1011.02 1012.05 1013.05 1013.85 1014.32 1014.37 1013.98 1013.20 1012.15 1011.00 1009.93 1009.09 1008.60 1008.49 1008.73 1009.26 1009.94 1010.67 1011.32 1011.83 1012.19 1012.42 1012.56 1012.69 1012.87 1013.14 1013.51 1013.96 1014.45 1014.94 1015.37 1015.73 1016.01 1016.22 1016.40 1016.59 1016.82 1017.11
1009.03 1008.91 1008.90 1009.06 1009.44 1010.04 1010.82 1011.67 1012.46 1013.06 1013.36 1013.28 1012.83 1012.06 1011.08 1010.06 1009.14 1008.47 1008.13 1008.15 1008.51 1009.11 1009.85 1010.61 1011.29 1011.82 1012.20 1012.45 1012.60 1012.73 1012.90 1013.15 1013.48 1013.88 1014.32 1014.75 1015.14 1015.46 1015.70 1015.87 1016.02 1016.17 1016.35 1016.59
1008.97 1008.93 1008.97 1009.13 1009.45 1009.93 1010.52 1011.14 1011.69 1012.06 1012.17 1011.97 1011.47 1010.73 1009.86 1008.99 1008.26 1007.77 1007.59 1007.74 1008.17 1008.82 1009.58 1010.34 1011.01 1011.56 1011.95 1012.22 1012.41 1012.58 1012.78 1013.04 1013.37 1013.76 1014.17 1014.57 1014.91 1015.19 1015.38 1015.52 1015.62 1015.72 1015.86 1016.05
1008.97 1009.02 1009.10 1009.26 1009.50 1009.83 1010.21 1010.58 1010.87 1011.00 1010.92 1010.61 1010.08 1009.40 1008.64 1007.94 1007.39 1007.07 1007.03 1007.27 1007.75 1008.41 1009.14 1009.87 1010.52 1011.05 1011.46 1011.77 1012.02 1012.25 1012.51 1012.83 1013.19 1013.60 1014.01 1014.39 1014.71 1014.95 1015.11 1015.21 1015.27 1015.34 1015.43 1015.59
1009.11 1009.24 1009.36 1009.49 1009.64 1009.82 1009.98 1010.11 1010.15 1010.05 1009.80 1009.39 1008.84 1008.21 1007.57 1007.02 1006.63 1006.45 1006.51 1006.81 1007.30 1007.92 1008.60 1009.27 1009.87 1010.39 1010.81 1011.17 1011.49 1011.82 1012.17 1012.57 1013.00 1013.44 1013.87 1014.26 1014.56 1014.79 1014.92 1015.00 1015.04 1015.09 1015.17 1015.30
1009.46 1009.64 1009.78 1009.88 1009.93 1009.95 1009.92 1009.81 1009.63 1009.33 1008.93 1008.43 1007.86 1007.28 1006.74 1006.31 1006.04 1005.97 1006.09 1006.41 1006.87 1007.43 1008.03 1008.62 1009.17 1009.67 1010.12 1010.54 1010.95 1011.38 1011.84 1012.33 1012.84 1013.35 1013.81 1014.21 1014.52 1014.73 1014.87 1014.94 1014.99 1015.04 1015.12 1015.26
1010.01 1010.23 1010.35 1010.40 1010.35 1010.22 1010.01 1009.71 1009.32 1008.86 1008.33 1007.76 1007.19 1006.65 1006.19 1005.86 1005.68 1005.66 1005.82 1006.11 1006.52 1007.01 1007.53 1008.05 1008.56 1009.05 1009.53 1010.01 1010.52 1011.05 1011.62 1012.21 1012.80 1013.36 1013.86 1014.27 1014.59 1014.82 1014.97 1015.06 1015.13 1015.22 1015.33 1015.50
1010.73 1010.92 1011.01 1010.98 1010.82 1010.56 1010.19 1009.72 1009.18 1008.59 1007.98 1007.37 1006.79 1006.29 1005.90 1005.63 1005.51 1005.54 1005.69 1005.97 1006.33 1006.75 1007.20 1007.67 1008.15 1008.65 1009.17 1009.73 1010.32 1010.95 1011.61 1012.27 1012.92 1013.52 1014.04 1014.47 1014.81 1015.05 1015.23 1015.36 1015.48 1015.61 1015.78 1016.00
1011.47 1011.60 1011.60 1011.47 1011.21 1010.82 1010.32 1009.74 1009.10 1008.43 1007.76 1007.14 1006.59 1006.13 1005.79 1005.59 1005.51 1005.57 1005.74 1005.99 1006.32 1006.70 1007.12 1007.57 1008.06 1008.58 1009.15 1009.77 1010.43 1011.13 1011.85 1012.56 1013.23 1013.84 1014.36 1014.79 1015.14 1015.40 1015.61 1015.79 1015.97 1016.18 1016.41 1016.69
1012.07 1012.10 1011.99 1011.74 1011.37 1010.87 1010.29 1009.63 1008.94 1008.24 1007.58 1006.98 1006.47 1006.08 1005.81 1005.67 1005.66 1005.75 1005.94 1006.21 1006.54 1006.91 1007.33 1007.80 1008.31 1008.87 1009.48 1010.15 1010.86 1011.60 1012.34 1013.05 1013.71 1014.30 1014.80 1015.21 1015.55 1015.82 1016.07 1016.30 1016.55 1016.83 1017.14 1017.48
1012.40 1012.28 1012.04 1011.68 1011.21 1010.64 1010.00 1009.32 1008.63 1007.96 1007.35 1006.83 1006.40 1006.10 1005.91 1005.86 1005.92 1006.07 1006.31 1006.62 1006.98 1007.39 1007.84 1008.34 1008.89 1009.50 1010.15 1010.85 1011.57 1012.31 1013.02 1013.70 1014.31 1014.84 1015.30 1015.67 1015.99 1016.28 1016.55 1016.84 1017.16 1017.51 1017.88 1018.28
1012.36 1012.10 1011.73 1011.26 1010.71 1010.11 1009.47 1008.81 1008.18 1007.60 1007.09 1006.67 1006.37 1006.18 1006.11 1006.15 1006.30 1006.54 1006.85 1007.22 1007.64 1008.11 1008.62 1009.17 1009.76 1010.40 1011.08 1011.77 1012.48 1013.17 1013.83 1014.43 1014.96 1015.42 1015.81 1016.14 1016.44 1016.73 1017.03 1017.36 1017.73 1018.15 1018.58 1019.03
1011.96 1011.57 1011.09 1010.55 1009.97 1009.36 1008.77 1008.19 1007.67 1007.22 1006.85 1006.58 1006.42 1006.37 1006.43 1006.59 1006.84 1007.17 1007.56 1008.00 1008.50 1009.03 1009.60 1010.20 1010.83 1011.48 1012.15 1012.82 1013.47 1014.09 1014.66 1015.16 1015.60 1015.98 1016.30 1016.58 1016.86 1017.15 1017.48 1017.85 1018.27 1018.73 1019.21 1019.69
1011.29 1010.81 1010.27 1009.69 1009.12 1008.57 1008.06 1007.61 1007.23 1006.94 1006.74 1006.64 1006.63 1006.73 1006.91 1007.19 1007.54 1007.96 1008.43 1008.95 1009.50 1010.09 1010.70 1011.33 1011.97 1012.62 1013.25 1013.87 1014.44 1014.97 1015.44 1015.84 1016.19 1016.48 1016.74 1016.99 1017.26 1017.56 1017.91 1018.32 1018.78 1019.27 1019.78 1020.27
1010.51 1009.99 1009.43 1008.88 1008.36 1007.90 1007.51 1007.21 1007.00 1006.89 1006.86 1006.92 1007.07 1007.30 1007.60 1007.97 1008.41 1008.90 1009.43 1010.00 1010.59 1011.22 1011.85 1012.48 1013.11 1013.72 1014.30 1014.84 1015.33 1015.76 1016.13 1016.44 1016.71 1016.94 1017.16 1017.40 1017.67 1017.98 1018.36 1018.80 1019.28 1019.79 1020.31 1020.79
1009.80 1009.29 1008.77 1008.29 1007.87 1007.53 1007.29 1007.15 1007.11 1007.15 1007.28 1007.49 1007.76 1008.10 1008.49 1008.93 1009.42 1009.95 1010.51 1011.10 1011.71 1012.33 1012.96 1013.57 1014.16 1014.71 1015.22 1015.68 1016.08 1016.42 1016.71 1016.96 1017.17 1017.38 1017.59 1017.83 1018.12 1018.47 1018.87 1019.33 1019.83 1020.34 1020.84 1021.30
Thickness
5775 5759 5748 5752 5757 5759 5755 5749 5746 5760 5776 5769 5763 5761 5764 5765 5762 5756 5751 5747 5744 5742 5740 5736 5732 5729 5726 5723 5721 5721 5721 5720 5719 5718 5717 5715 5715 5717 5718 5720 5721 5721 5721 5720
5756 5749 5760 5766 5765 5760 5754 5746 5747 5762 5774 5767 5758 5757 5762 5761 5758 5755 5751 5746 5743 5739 5736 5733 5730 5728 5725 5723 5721 5719 5718 5718 5718 5718 5717 5717 5716 5715 5716 5716 5717 5718 5719 5719
5748 5757 5770 5766 5761 5756 5754 5749 5751 5754 5763 5762 5753 5748 5753 5757 5758 5755 5752 5749 5746 5741 5736 5733 5730 5728 5726 5723 5722 5720 5718 5717 5717 5717 5715 5714 5712 5712 5711 5712 5713 5715 5716 5717
5751 5762 5765 5761 5758 5759 5747 5764 5763 5758 5746 5734 5739 5722 5743 5747 5747 5750 5748 5747 5745 5742 5738 5734 5730 5728 5726 5724 5722 5719 5717 5715 5714 5715 5715 5714 5711 5709 5710 5711 5711 5713 5714 5714
5750 5762 5761 5757 5764 5766 5761 5768 5760 5752 5741 5730 5730 5722 5731 5743 5741 5745 5747 5747 5745 5743 5740 5735 5732 5730 5727 5725 5722 5718 5715 5713 5713 5713 5713 5713 5710 5710 5709 5709 5709 5710 5710 5711
5757 5768 5770 5769 5776 5775 5771 5760 5748 5734 5725 5716 5725 5719 5723 5736 5745 5748 5749 5748 5747 5744 5740 5737 5733 5730 5726 5724 5721 5717 5714 5712 5711 5711 5711 5711 5710 5709 5707 5707 5707 5707 5707 5708
5745 5757 5770 5776 5765 5767 5761 5736 5714 5713 5703 5709 5722 5717 5724 5750 5755 5754 5751 5749 5748 5745 5741 5736 5732 5729 5725 5722 5719 5717 5714 5712 5711 5710 5709 5710 5710 5709 5708 5708 5707 5706 5706 5706
5726 5731 5761 5770 5764 5755 5751 5739 5713 5703 5700 5708 5720 5717 5739 5759 5760 5759 5756 5752 5749 5745 5742 5738 5734 5731 5727 5723 5720 5718 5715 5713 5712 5711 5710 5710 5710 5709 5708 5708 5707 5707 5707 5708
5723 5729 5763 5773 5776 5766 5747 5737 5739 5715 5709 5704 5712 5726 5746 5759 5757 5755 5753 5750 5748 5745 5743 5739 5736 5733 5729 5725 5722 5719 5716 5714 5713 5711 5710 5709 5709 5709 5708 5708 5708 5707 5707 5707
5739 5732 5752 5767 5771 5767 5762 5744 5723 5711 5700 5697 5711 5719 5729 5750 5753 5753 5751 5749 5747 5746 5744 5741 5738 5735 5731 5727 5723 5720 5718 5716 5714 5712 5711 5710 5709 5709 5708 5707 5706 5706 5706 5707
5742 5730 5739 5751 5752 5749 5746 5739 5726 5710 5709 5698 5697 5717 5754 5755 5758 5755 5753 5752 5749 5746 5744 5742 5739 5736 5733 5729 5724 5720 5718 5716 5714 5712 5711 5710 5709 5709 5708 5707 5706 5706 5706 5706
5737 5723 5718 5735 5754 5760 5753 5741 5726 5716 5711 5704 5701 5721 5768 5763 5762 5759 5755 5754 5752 5749 5746 5743 5739 5736 5732 5729 5725 5722 5719 5717 5715 5713 5711 5710 5709 5708 5707 5706 5705 5705 5705 5705
5732 5716 5707 5716 5728 5742 5741 5739 5732 5722 5709 5698 5699 5726 5763 5761 5759 5759 5756 5754 5752 5749 5745 5742 5738 5735 5732 5729 5726 5723 5720 5717 5715 5713 5711 5709 5707 5706 5706 5705 5705 5704 5704 5703
5731 5711 5706 5705 5714 5728 5730 5734 5729 5721 5706 5701 5711 5732 5752 5755 5755 5755 5754 5753 5750 5747 5744 5740 5736 5734 5732 5730 5727 5724 5720 5718 5715 5712 5710 5707 5706 5705 5704 5703 5703 5702 5702 5700
5722 5706 5711 5714 5724 5727 5729 5732 5730 5725 5723 5717 5728 5733 5749 5754 5755 5755 5753 5750 5748 5744 5742 5739 5736 5733 5731 5728 5726 5724 5721 5718 5714 5711 5707 5705 5704 5703 5702 5701 5700 5699 5698 5697
5707 5702 5703 5706 5718 5720 5721 5729 5731 5729 5731 5729 5734 5737 5752 5754 5753 5750 5749 5747 5745 5742 5740 5738 5735 5733 5730 5727 5725 5722 5720 5717 5713 5709 5706 5704 5702 5700 5699 5698 5696 5695 5694 5692
5692 5690 5685 5684 5703 5706 5701 5722 5727 5729 5734 5733 5730 5742 5747 5745 5746 5745 5744 5744 5743 5740 5737 5734 5732 5730 5728 5725 5723 5719 5716 5713 5710 5706 5702 5700 5698 5696 5694 5692 5691 5689 5687 5686
5681 5677 5670 5671 5682 5674 5704 5727 5731 5729 5732 5736 5738 5742 5743 5741 5739 5738 5739 5739 5737 5736 5733 5730 5728 5725 5722 5720 5717 5714 5711 5707 5703 5699 5696 5694 5692 5689 5687 5686 5684 5681 5678 5676
5675 5669 5660 5657 5661 5674 5698 5714 5718 5716 5718 5730 5730 5732 5733 5732 5730 5726 5728 5730 5729 5727 5724 5722 5720 5718 5715 5712 5709 5706 5701 5697 5694 5691 5688 5687 5685 5682 5679 5676 5674 5671 5668 5665
5664 5662 5655 5650 5654 5657 5686 5707 5714 5710 5703 5722 5725 5724 5724 5725 5717 5715 5717 5717 5717 5715 5713 5710 5709 5708 5704 5701 5700 5697 5691 5687 5683 5681 5679 5677 5675 5672 5668 5665 5662 5659 5656 5652
5650 5648 5647 5645 5647 5661 5686 5698 5701 5686 5698 5712 5716 5717 5716 5714 5714 5710 5708 5704 5703 5701 5700 5698 5697 5693 5691 5690 5689 5684 5679 5674 5672 5671 5669 5666 5664 5661 5657 5653 5650 5647 5643 5638
5640 5639 5639 5637 5639 5652 5680 5685 5682 5687 5695 5702 5705 5706 5705 5704 5701 5698 5695 5691 5690 5687 5685 5684 5683 5679 5676 5677 5677 5672 5665 5662 5661 5660 5657 5654 5651 5649 5645 5641 5636 5633 5629 5625
5636 5638 5638 5640 5646 5661 5669 5673 5680 5683 5686 5690 5693 5694 5695 5692 5687 5684 5681 5678 5677 5676 5672 5669 5668 5665 5662 5661 5662 5658 5652 5651 5649 5647 5644 5641 5638 5634 5631 5628 5623 5619 5614 5610
5637 5639 5637 5639 5649 5657 5663 5668 5674 5678 5680 5683 5684 5683 5684 5680 5675 5670 5666 5663 5662 5660 5659 5657 5655 5652 5648 5646 5645 5643 5641 5640 5638 5634 5630 5627 5623 5619 5615 5612 5608 5604 5599 5595
5635 5636 5634 5637 5646 5652 5659 5662 5666 5670 5673 5674 5673 5673 5671 5669 5664 5660 5655 5651 5648 5646 5645 5644 5642 5638 5634 5633 5631 5631 5630 5629 5625 5621 5617 5612 5609 5604 5599 5594 5589 5587 5582 5580
5630 5631 5632 5635 5643 5644 5649 5656 5660 5662 5663 5664 5663 5660 5658 5658 5654 5650 5644 5640 5636 5633 5632 5629 5627 5625 5622 5621 5619 5617 5617 5616 5613 5608 5603 5598 5594 5590 5585 5580 5573 5569 5566 5562